Weather Roundup
Issued by NWS Springfield, MO

Home | Current Version | Previous Version | Text Only | Print | Product List | Glossary On
Versions: 1 2 3 4 5 6 7 8 9 10 11 12 13 14 15 16 17 18 19 20 21 22 23 24 25 26 27 28 29 30 31 32 33 34 35 36 37 38 39 40 41 42 43 44 45 46 47 48 49 50
000
NZUS99 KSGF 051507
HRRSGF

HOURLY WEATHER
NATIONAL WEATHER SERVICE SPRINGFIELD MO
900 AM CST THU MAR 05 2015

......SGF CWA......

CITY           SKY/WX    TMP DP  RH WIND       PRES   REMARKS
SPRINGFIELD    SUNNY     20   7  57 N12       30.52R WCI   8
JOPLIN         SUNNY     23  11  60 NE9       30.57R WCI  13
WEST PLAINS    SUNNY     23   7  50 N9        30.48R WCI  13
ROLLA          SUNNY     19   6  57 NW13      30.49R WCI   6
OSAGE BEACH    SUNNY     19   1  45 N9        30.55R WCI   9
BRANSON        SUNNY     25  10  54 N9        30.51R WCI  15

......SURROUNDING SGF CWA......

CITY           SKY/WX    TMP DP  RH WIND       PRES   REMARKS
CHANUTE        SUNNY     22  10  60 NE7       30.57R WCI  13
PARSONS        SUNNY     24  12  60 VRB7      30.58R WCI  16
COFFEYVILLE    SUNNY     24  13  62 NE6       30.58R WCI  17
EMPORIA        SUNNY     17   8  67 E6        30.56R WCI   9
GROVE OK       SUNNY     28  14  54 CALM      30.58R
ROGERS AR      SUNNY     24  13  62 N6        30.53R WCI  17
SILOAM SPRINGS SUNNY     25  10  54 N10       30.55R WCI  15
HARRISON AR    SUNNY     22  11  62 NW10      30.50R WCI  11
NEAR YELLVILLE SUNNY     25  10  54 CALM      30.52R

......KANSAS AND MISSOURI......

CITY           SKY/WX    TMP DP  RH WIND       PRES   REMARKS
KANSAS CTY INT SUNNY     14  -1  51 N7        30.58R WCI   4
DOWNTOWN KC    SUNNY     17  -3  41 N7        30.61R WCI   8
COLUMBIA       CLOUDY    18   9  68 N9        30.54R WCI   7
SEDALIA        SUNNY     16   2  54 NW9       30.57R WCI   4
ST JOSEPH      SUNNY     13  -1  54 N7        30.62R WCI   3
ST LOUIS       MOSUNNY   19   3  49 N12       30.54R WCI   7
SPIRIT OF STL  MOSUNNY   19   2  47 N7        30.54R WCI  10
WICHITA        SUNNY     24  10  55 E7        30.53R WCI  16
TOPEKA         SUNNY     16   3  56 NE3       30.61R
OLATHE         SUNNY     16  -2  45 N9        30.57R WCI   4

......TENNESSEE......

CITY           SKY/WX    TMP DP  RH WIND       PRES   REMARKS
MEMPHIS        CLOUDY    23  15  71 N13       30.46R WCI  11
NASHVILLE      FLURRIES  22  18  85 N12       30.34R WCI  10

......ARKANSAS.......

CITY           SKY/WX    TMP DP  RH WIND       PRES   REMARKS
FAYETTEVILLE   SUNNY     24  11  57 N8        30.53R WCI  15
FT SMITH       SUNNY     27  12  53 N7        30.59R WCI  19
LITTLE ROCK    PTSUNNY   26  16  65 N8        30.55R WCI  18

......OKLAHOMA.......

CITY           SKY/WX    TMP DP  RH WIND       PRES   REMARKS
TULSA          SUNNY     28  14  55 NW6       30.58R WCI  22
PONCA CITY     SUNNY     21  16  81 CALM      30.57R
MCALESTER      MOSUNNY   26  13  57 N9        30.59R WCI  17
OKLAHOMA CITY  SUNNY     20  12  71 NW7       30.56R WCI  11

......IOWA............

CITY           SKY/WX    TMP DP  RH WIND       PRES   REMARKS
DES MOINES     MOSUNNY    7  -7  52 VRB3      30.58R
QUAD CITIES    SUNNY      4  -7  60 NW9       30.55R WCI -10

......ILLINOIS........

CITY           SKY/WX    TMP DP  RH WIND       PRES   REMARKS
QUINCY         SUNNY     10   0  63 NW10      30.55R WCI  -4
CHICAGO        MOSUNNY   10  -6  48 NW10      30.46R WCI  -4



USA.gov is the U.S. government's official web portal to all federal, state and local government web resources and services.